Location: Saratoga Springs
(43.0831°N, 73.7850°W)
Time: 06:38:54
(UTC-04:00)

Vanguard 1 Rocket - Visible Passes

Search period start: 17 April 2024 00:00
Search period end: 27 April 2024 00:00
Orbit: 652 x 4219 km, 34.3° (Epoch: 16 April)

Date Brightness Start Highest point End Pass type
(mag) Time Alt. Az. Time Alt. Az. Time Alt. Az.
17 Apr 9.6 00:12:55 10° W 00:43:37 - SE 00:17:33 33° WSW visible
17 Apr 11.1 03:00:58 18° S 03:00:58 18° S 03:07:11 10° SSE visible
17 Apr 8.4 20:38:35 10° SW 20:44:04 41° SSE 20:52:16 13° E visible
17 Apr 8.9 23:01:44 10° WSW 23:09:27 49° S 23:09:27 49° S visible
18 Apr 10.6 01:26:32 10° W 01:54:21 - SSE 01:26:39 10° W visible
18 Apr 11.3 04:11:42 12° SSW 04:11:42 12° SSW 04:14:24 10° SSW visible
18 Apr 8.6 21:50:51 10° WSW 21:57:17 48° S 22:01:21 34° SE visible
19 Apr 9.8 00:14:47 10° W 00:18:32 27° WSW 00:18:32 27° WSW visible
19 Apr 11.4 03:04:59 10° S 03:04:59 10° S 03:05:12 10° S visible
19 Apr 8.3 20:40:10 10° WSW 20:45:31 42° SSE 20:53:14 14° ESE visible
19 Apr 9.0 23:03:31 10° WSW 23:10:26 44° SSW 23:10:26 44° SSW visible
20 Apr10.701:58:09SSE01:58:09SSE01:27:38Wvisible
20 Apr 8.6 21:52:33 10° WSW 21:58:47 45° S 22:02:20 34° SE visible
21 Apr 9.9 00:16:46 10° W 00:19:31 21° WSW 00:19:31 21° WSW visible
21 Apr 8.3 20:41:48 10° WSW 20:47:00 42° S 20:54:13 14° ESE visible
21 Apr 9.1 23:05:22 10° WSW 23:11:25 37° SSW 23:11:25 37° SSW visible
22 Apr 8.6 21:54:20 10° WSW 22:00:18 41° S 22:03:19 33° SSE visible
23 Apr 10.1 00:18:57 10° WSW 00:20:31 15° WSW 00:20:31 15° WSW visible
23 Apr 8.3 20:43:29 10° WSW 20:48:31 40° S 20:55:14 14° ESE visible
23 Apr 9.3 23:07:20 10° WSW 23:12:26 30° SSW 23:12:26 30° SSW visible
24 Apr 8.8 21:56:10 10° WSW 22:01:49 35° S 22:04:21 30° SSE visible
25 Apr 10.3 00:21:30 10° WSW 00:21:33 10° WSW 00:21:33 10° WSW visible
25 Apr 8.3 20:45:13 10° WSW 20:50:03 36° S 20:56:17 14° ESE visible
25 Apr 9.5 23:09:29 10° WSW 23:13:29 23° SW 23:13:29 23° SW visible
26 Apr 9.0 21:58:05 10° WSW 22:03:22 29° SSW 22:05:26 26° S visible
